CAPE
0 212 342 395 631 522 272 124 9 0 0 0 2 151 126 81 50 2 1 4 2 0 2 6 4 1 0 5 2 3 0 0 0 2 2 1 1 0 0 0 0 0 7
0 9 206 396 342 262 124 23 11 1 0 0 175 117 99 71 11 6 0 3 0 0 1 1 2 0 0 5 4 0 0 0 0 0 3 2 0 0 0 0 0 0 0
0 7 98 32 213 108 88 110 73 17 100 153 39 62 82 35 10 1 0 0 2 1 9 1 4 3 4 1 0 0 0 0 0 0 2 1 1 0 0 0 0 0 0
0 0 135 74 95 58 81 128 97 50 68 33 57 42 24 38 17 1 0 0 0 1 0 1 1 0 1 0 0 0 0 0 0 0 0 0 0 0 0 0 0 0 0
0 0 2 70 59 62 33 46 50 28 20 20 27 28 16 2 16 7 0 2 0 0 1 1 1 1 1 1 0 1 0 0 0 0 0 0 0 0 0 0 0 0 0
0 0 18 197 62 58 21 1 0 12 12 24 37 39 6 6 4 1 0 0 1 0 0 0 1 3 2 1 0 0 0 0 0 0 0 0 0 0 0 0 0 0 0
0 0 0 66 47 15 2 0 1 2 5 1 10 11 4 0 0 0 0 0 0 0 0 0 0 0 0 0 0 0 0 0 0 0 0 0 0 0 0 0 0 0 0
0 0 0 13 5 0 1 0 2 0 4 4 4 4 0 3 2 0 0 0 0 0 0 0 0 0 0 0 0 0 0 0 0 0 0 0 0 0 0 0 0 0 0
0 2 3 4 1 1 1 0 0 0 2 5 1 2 2 4 1 0 0 0 0 0 0 0 0 0 0 0 0 0 0 0 0 0 0 0 0 0 0 0 0 0 0
0 0 8 7 2 0 0 0 0 0 0 0 1 2 4 3 0 0 0 0 0 0 0 0 0 0 0 0 0 0 0 0 0 0 0 0 0 0 0 0 0 0 0
0 0 4 8 3 0 0 0 0 0 1 1 2 3 2 0 1 0 0 0 0 0 0 0 0 0 0 0 0 0 0 0 0 0 0 0 0 0 0 0 0 0 0
0 0 1 1 1 1 0 1 3 2 2 3 2 3 2 3 0 0 0 0 0 0 0 0 0 0 0 0 0 0 0 0 0 0 0 0 0 0 0 0 0 0 0
0 2 1 1 1 1 1 2 3 2 2 2 2 0 0 0 0 0 0 0 0 0 0 0 0 0 0 0 0 0 0 0 0 0 0 0 0 0 0 0 0 0 0
0 0 1 1 2 3 2 2 2 3 2 2 0 0 0 0 0 0 0 0 0 0 0 0 0 0 0 0 0 0 0 0 0 0 0 0 0 0 0 0 0 0 0
0 2 2 2 3 3 2 2 2 0 0 0 0 0 0 0 0 0 0 0 0 0 0 0 0 0 0 0 0 0 0 0 0 0 0 0 0 0 0 0 0 0 0
1 2 3 3 3 3 2 2 1 0 0 0 0 0 0 0 0 0 0 0 0 0 0 0 0 0 0 0 0 0 0 0 0 0 0 0 0 0 0 0 0 0 0
1 3 3 3 2 1 1 0 0 1 0 0 0 0 0 0 0 0 0 0 0 0 0 0 0 0 0 0 0 0 0 0 0 0 0 0 0 0 0 0 0 0 0
1 2 2 2 1 1 1 2 0 0 0 0 0 0 0 0 0 0 0 0 0 0 0 0 0 0 0 0 0 0 0 0 0 0 0 0 0 0 0 0 0 0 0
2 2 2 2 2 2 2 1 0 1 2 1 1 1 0 0 0 0 0 0 0 0 0 0 0 0 0 0 0 0 0 0 0 0 0 0 0 0 0 0 0 0 0
1 1 2 2 2 1 1 2 2 2 2 1 1 1 0 0 0 0 0 0 0 0 0 0 0 0 0 0 0 0 0 0 0 0 0 0 0 0 0 0 0 0 0
2 2 2 2 1 1 1 2 2 1 1 1 0 0 0 0 0 0 0 0 0 0 0 0 0 0 0 0 0 0 0 0 0 0 0 0 0 0 0 0 0 0 0
2 2 2 2 1 1 0 0 0 0 0 0 0 0 0 0 0 0 0 0 0 0 0 0 0 0 0 0 0 0 0 0 0 0 0 0 0 0 0 0 0 0 0
1 1 1 1 1 0 0 0 0 0 0 0 0 0 0 0 0 0 0 0 0 0 0 0 0 0 0 0 0 0 0 0 0 0 0 0 0 0 0 0 0 0 0
1 1 1 1 2 0 0 0 0 0 0 0 0 0 0 0 0 0 0 0 0 0 0 0 0 0 0 0 0 0 0 0 0 0 0 0 0 0 0 0 0 0 0
1 1 2 1 0 0 0 0 0 0 0 0 0 0 0 0 0 0 0 0 0 0 0 0 0 0 0 0 0 0 0 0 0 0 0 0 0 0 0 0 0 0 0
0 1 1 1 0 0 0 0 0 0 0 0 0 0 0 0 0 0 0 0 0 0 0 0 0 0 0 0 0 0 0 0 0 0 0 0 0 0 0 0 0 0 0
CIN
0 -82 -57 -92 -22 -56 -139 -205 -169 0 0 0 -12 -29 -50 -35 -27 -35 -75 -9 -16 -7 -4 -8 -5 -6 -2 -18 -40 -80 0 0 0 0 0 0 0 0 0 0 0 0 0
0 -25 -20 -24 -7 -68 -162 -227 -193 -136 0 0 -50 -25 -18 -7 -60 -75 0 -13 -1 -3 -5 -4 -4 0 0 -26 -72 -18 0 0 0 0 0 0 0 0 0 0 0 0 0
0 -30 -34 -65 -4 -36 -125 -120 -104 -111 -66 -29 -84 -77 -14 -16 -48 -51 0 0 -13 -8 -3 -5 -4 -16 -34 -65 -35 0 0 0 0 0 0 0 0 0 0 0 0 0 0
0 0 -20 -12 -1 -40 -35 -28 -37 -62 -29 -37 -30 -48 -25 -25 -29 -20 -3 0 -16 -10 -9 -14 -4 0 0 0 0 0 0 0 0 0 0 0 0 0 0 0 0 0 0
-1 0 -14 -4 -10 -8 -20 -11 -20 -31 -25 -33 -26 -18 -28 -21 -29 -56 0 -41 0 0 0 0 0 0 0 0 0 0 0 0 0 0 0 0 0 0 0 0 0 0 0
0 0 -56 -2 -23 -27 -29 -28 0 -12 -19 -22 -6 -11 -19 -35 -55 -85 -1 0 0 0 0 0 0 0 0 0 0 0 0 0 0 0 0 0 0 0 0 0 0 0 0
-12 -5 -91 -50 -45 -73 0 -9 -19 -24 -22 -3 -19 -41 -48 0 0 0 0 0 0 0 0 0 0 0 0 0 0 0 0 0 0 0 0 0 0 0 0 0 0 0 0
0 -1 -49 -116 -106 0 0 -12 -30 0 -24 -17 -29 -37 0 0 0 0 0 0 0 0 0 0 0 0 0 0 0 0 0 0 0 0 0 0 0 0 0 0 0 0 0
-2 -3 -103 -125 0 0 0 0 -49 -6 -4 -10 -23 -10 0 0 0 0 0 0 0 0 0 0 0 0 0 0 0 0 0 0 0 0 0 0 0 0 0 0 0 0 0
0 0 -34 -71 0 0 0 0 0 0 -13 0 0 0 0 0 0 0 0 0 0 0 0 0 0 0 0 0 0 0 0 0 0 0 0 0 0 0 0 0 0 0 0
0 0 0 -66 -55 0 0 0 0 0 0 0 0 0 0 0 0 0 0 0 0 0 0 0 0 0 0 0 0 0 0 0 0 0 0 0 0 0 0 0 0 0 0
0 0 0 0 0 0 0 0 0 0 0 0 0 0 0 0 0 0 0 0 0 0 0 0 0 0 0 0 0 0 0 0 0 0 0 0 0 0 0 0 0 0 0
0 0 0 0 0 0 0 0 0 0 0 0 0 0 0 0 0 0 0 0 0 0 0 0 0 0 0 0 0 0 0 0 0 0 0 0 0 0 0 0 0 0 0
0 0 0 0 0 0 0 0 0 0 0 0 0 0 0 0 0 0 0 0 0 0 0 0 0 0 0 0 0 0 0 0 0 0 0 0 0 0 0 0 0 0 0
0 0 0 0 0 0 0 0 0 0 0 0 0 0 0 0 0 0 0 0 0 0 0 0 0 0 0 0 0 0 0 0 0 0 0 0 0 0 0 0 0 0 0
0 0 0 0 0 0 0 0 0 0 0 0 0 0 0 0 0 0 0 0 0 0 0 0 0 0 0 0 0 0 0 0 0 0 0 0 0 0 0 0 0 0 0
0 0 0 0 0 0 0 0 0 0 0 0 0 0 0 0 0 0 0 0 0 0 0 0 0 0 0 0 0 0 0 0 0 0 0 0 0 0 0 0 0 0 0
0 0 0 0 0 0 0 0 0 0 0 0 0 0 0 0 0 0 0 0 0 0 0 0 0 0 0 0 0 0 0 0 0 0 0 0 0 0 0 0 0 0 0
0 0 0 0 0 0 0 0 0 0 0 0 0 0 0 0 0 0 0 0 0 0 0 0 0 0 0 0 0 0 0 0 0 0 0 0 0 0 0 0 0 0 0
0 0 0 0 0 0 0 0 0 0 0 0 0 0 0 0 0 0 0 0 0 0 0 0 0 0 0 0 0 0 0 0 0 0 0 0 0 0 0 0 0 0 0
0 0 0 0 0 0 0 0 0 0 0 0 0 0 0 0 0 0 0 0 0 0 0 0 0 0 0 0 0 0 0 0 0 0 0 0 0 0 0 0 0 0 0
0 0 0 0 0 0 0 0 0 0 0 0 0 0 0 0 0 0 0 0 0 0 0 0 0 0 0 0 0 0 0 0 0 0 0 0 0 0 0 0 0 0 0
0 0 0 0 0 0 0 0 0 0 0 0 0 0 0 0 0 0 0 0 0 0 0 0 0 0 0 0 0 0 0 0 0 0 0 0 0 0 0 0 0 0 0
0 0 0 0 0 0 0 0 0 0 0 0 0 0 0 0 0 0 0 0 0 0 0 0 0 0 0 0 0 0 0 0 0 0 0 0 0 0 0 0 0 0 0
0 0 0 0 0 0 0 0 0 0 0 0 0 0 0 0 0 0 0 0 0 0 0 0 0 0 0 0 0 0 0 0 0 0 0 0 0 0 0 0 0 0 0
0 0 0 0 0 0 0 0 0 0 0 0 0 0 0 0 0 0 0 0 0 0 0 0 0 0 0 0 0 0 0 0 0 0 0 0 0 0 0 0 0 0 0
Wind_Speed
34 33 30 28 27 24 20 14 15 12 6 15 2 11 2 2 3 4 5 6 8 9 10 11 12 12 13 13 15 16 16 16 16 16 17 19 19 19 21 20 20 20 21
32 33 31 26 22 19 18 16 9 5 0 6 5 6 2 3 4 5 4 6 7 9 10 11 12 12 13 14 15 16 17 17 15 15 16 17 18 19 20 20 20 21 21
31 30 28 28 18 13 10 8 6 3 2 2 1 2 3 5 5 4 4 5 7 9 10 11 11 12 13 15 16 16 18 18 16 15 16 16 18 18 20 20 21 21 21
28 28 25 25 16 10 9 8 8 6 5 3 3 3 4 3 7 2 4 6 8 8 10 10 11 12 14 15 16 17 18 19 20 20 19 19 18 18 19 19 21 22 23
28 26 27 22 17 10 12 9 8 7 5 5 1 6 4 4 5 4 7 8 8 9 9 9 11 13 15 17 17 19 20 21 21 21 20 20 21 22 22 22 19 20 24
29 27 25 16 16 14 12 10 6 6 7 2 6 6 5 5 4 7 7 8 9 10 9 10 12 15 18 19 21 22 23 22 21 21 22 22 24 23 23 23 22 21 24
29 26 23 17 20 18 14 7 5 7 6 4 5 3 4 4 7 9 8 9 10 10 9 11 13 16 19 20 22 23 24 25 24 23 23 24 24 24 24 24 23 23 24
28 26 22 18 21 17 9 3 4 4 3 4 3 5 5 4 9 9 10 10 10 9 11 13 17 15 16 19 21 23 25 26 26 26 27 26 27 27 25 24 22 21 24
27 26 23 17 23 17 6 2 2 5 2 5 4 5 5 7 11 10 10 11 12 10 5 7 13 16 18 21 23 25 26 28 29 29 30 30 31 30 29 26 28 24 26
28 27 24 12 18 11 3 2 2 3 3 5 5 6 6 6 9 13 14 10 10 8 6 7 12 17 21 23 24 25 26 26 27 28 30 31 32 32 33 31 30 31 29
29 28 26 20 20 14 4 1 3 5 5 5 9 8 5 6 8 15 14 9 8 9 4 4 8 18 22 24 26 27 28 27 28 29 29 30 31 32 32 32 33 33 32
30 28 26 21 16 5 4 3 4 6 8 12 8 7 7 8 12 10 11 9 7 8 5 6 14 21 24 26 27 28 28 28 28 29 30 31 31 31 31 30 30 31 30
32 29 24 18 13 7 6 6 7 9 13 10 10 11 11 10 10 12 11 10 7 7 8 15 21 23 25 26 27 28 28 28 29 30 31 31 30 30 31 30 31 28 30
35 31 26 22 13 11 7 7 10 16 13 12 13 14 13 12 11 9 8 8 10 11 16 14 20 23 24 26 27 28 29 29 29 30 30 30 30 31 32 31 31 31 31
36 31 29 15 14 9 9 9 15 18 14 14 15 16 14 12 12 11 9 8 7 9 14 18 20 23 26 27 28 29 29 29 30 30 31 30 30 30 31 31 31 31 33
37 31 26 16 16 13 11 10 15 14 15 15 16 15 14 12 13 11 10 9 15 16 13 21 24 25 26 27 27 28 29 29 30 30 30 30 30 30 32 31 31 32 31
36 25 22 19 18 15 15 17 15 13 14 15 13 14 13 14 12 11 11 10 9 9 17 22 24 26 26 26 27 28 28 29 29 30 30 30 30 31 32 32 32 31 31
31 24 22 21 15 18 22 22 17 16 16 14 14 14 14 14 12 12 11 8 5 5 17 22 25 26 26 27 27 27 28 28 29 30 30 30 30 30 31 31 31 31 30
29 22 22 15 13 19 26 20 19 18 16 16 16 12 13 12 13 15 15 7 6 13 20 22 25 25 26 26 27 27 27 28 28 29 30 30 30 30 31 31 30 30 30
28 18 16 18 14 26 25 23 23 18 15 17 23 18 16 15 19 17 12 6 6 15 21 23 25 25 26 26 26 27 27 27 28 28 29 29 29 29 30 30 29 29 30
23 20 15 19 30 26 25 25 20 15 16 21 23 24 21 17 19 15 10 5 11 19 23 24 25 26 26 26 26 26 26 27 27 28 28 29 29 29 28 29 30 30 29
17 14 18 31 24 24 19 19 19 16 17 22 21 24 22 18 16 14 8 4 12 19 23 25 25 26 26 25 25 25 26 26 26 27 27 28 28 28 29 29 29 30 31
16 25 30 25 25 19 19 17 17 20 20 19 23 24 21 16 16 13 7 5 12 19 22 24 25 26 25 25 25 25 25 26 26 26 27 27 28 28 28 29 28 29 29
21 21 23 23 24 22 18 21 22 19 17 17 22 21 19 15 15 12 7 5 13 20 23 24 25 26 26 26 25 25 25 26 26 26 26 27 27 28 28 28 28 28 29
18 23 25 26 18 17 21 21 19 18 18 19 20 17 16 13 14 12 7 5 12 20 24 25 26 26 26 26 26 25 26 26 26 26 26 27 27 28 27 27 28 28 28
14 21 26 24 21 17 19 18 18 18 17 19 19 17 15 12 14 11 7 6 12 19 23 25 25 25 26 25 26 26 26 26 26 26 26 26 27 27 27 27 27 27 28
Wind_Direction
296 291 305 294 286 290 286 280 269 272 301 264 248 268 84 41 20 13 15 358 22 25 28 37 39 33 24 17 11 9 5 13 21 20 20 12 8 6 5 10 9 6 7
295 288 283 300 285 286 280 279 279 280 306 142 301 282 341 49 50 46 15 24 37 35 41 42 35 21 22 19 16 11 12 14 20 25 22 26 21 16 14 13 9 7 5
295 296 299 277 287 283 285 300 306 15 47 94 13 287 261 86 68 42 337 21 33 43 33 35 14 20 21 23 24 17 12 16 27 46 48 40 34 32 23 18 13 9 7
297 302 305 273 275 273 276 287 280 327 343 344 312 185 174 100 78 36 39 38 44 32 24 15 353 12 25 31 26 22 32 39 51 55 50 46 37 29 20 15 9 5 357
293 299 300 271 281 269 268 287 301 333 359 299 52 202 179 103 88 66 61 60 50 33 13 353 4 16 28 36 39 46 53 58 60 58 47 38 27 18 11 9 10 6 358
287 291 299 324 284 257 266 287 337 14 12 261 211 177 128 107 99 81 68 60 51 41 28 26 19 31 40 47 50 51 55 59 52 50 41 32 21 20 16 10 7 358 350
278 281 290 301 264 262 265 301 326 32 65 201 202 161 136 133 93 85 71 62 56 51 49 38 39 45 53 55 50 43 39 38 42 45 39 32 26 22 21 18 18 15 8
270 270 278 279 251 254 262 249 302 41 229 200 174 122 141 122 95 87 80 65 62 57 55 60 64 53 48 51 46 44 43 44 44 46 44 40 34 28 26 22 22 27 16
261 260 268 271 244 247 265 211 284 70 202 202 157 137 143 106 100 93 83 78 80 66 43 46 54 54 54 55 58 58 57 57 55 53 49 43 38 32 25 23 15 13 5
253 255 260 270 228 232 222 247 278 234 195 200 183 190 129 113 105 100 99 91 86 76 61 56 51 55 59 63 65 67 64 64 61 54 50 46 42 36 31 27 23 16 10
249 250 249 237 227 234 232 140 104 209 190 190 204 202 162 130 119 106 102 101 95 86 88 58 39 58 62 65 65 68 69 68 60 58 54 50 45 40 36 33 31 27 22
241 244 238 221 224 213 136 144 149 153 168 189 175 178 160 148 119 107 106 106 108 97 83 57 55 64 68 70 70 69 67 64 62 58 54 49 47 45 41 38 38 37 36
231 236 222 218 210 192 147 154 156 179 186 177 150 154 160 149 126 114 105 105 116 97 75 70 72 70 70 68 68 67 66 65 62 57 54 53 53 49 45 43 42 46 41
224 225 213 211 205 197 179 168 180 194 184 168 153 155 156 149 152 150 142 140 100 87 80 66 70 69 64 67 67 66 65 64 62 60 59 60 58 53 49 47 47 45 45
211 214 202 198 195 181 190 184 195 196 178 165 169 168 156 165 181 157 150 160 166 90 81 74 69 73 76 72 70 68 66 64 61 61 60 61 60 58 54 53 53 52 49
200 200 204 199 196 184 170 170 189 187 186 178 175 172 181 155 144 135 157 127 96 90 75 80 83 84 80 76 72 71 70 66 64 64 64 65 63 62 58 58 57 56 55
193 198 197 191 188 181 169 177 168 158 165 169 159 157 154 143 142 144 128 116 98 84 78 84 87 87 83 77 74 74 73 69 68 66 66 67 66 65 63 61 61 60 60
190 191 190 188 176 184 187 181 167 161 160 162 158 153 143 141 142 155 165 171 133 77 79 87 88 87 83 80 79 79 76 71 69 69 69 69 70 68 66 65 64 63 63
189 191 189 175 159 182 185 182 176 169 168 161 167 152 160 151 164 184 193 181 102 81 87 86 89 87 84 82 82 81 78 75 73 73 71 71 72 72 69 68 68 66 66
193 184 180 129 161 188 188 183 180 173 166 173 184 181 177 173 189 195 194 182 98 84 91 90 91 90 87 84 84 84 80 78 76 75 74 74 75 75 73 71 70 69 68
191 190 135 182 186 186 183 183 180 166 153 182 186 189 189 190 194 195 193 172 89 92 97 95 95 94 92 88 86 85 81 80 79 78 77 76 77 76 76 75 73 71 72
193 184 182 187 185 184 179 178 177 162 170 185 188 189 192 196 195 196 189 149 89 92 98 99 98 99 96 91 89 87 84 82 82 80 78 79 79 78 77 77 76 74 73
198 193 188 190 191 175 179 174 175 182 184 187 189 192 196 197 198 198 182 139 92 95 99 99 99 99 97 92 90 88 85 86 86 84 81 79 79 78 79 78 78 76 76
200 194 194 194 185 187 186 188 189 184 181 184 192 196 196 197 198 196 181 142 95 99 104 104 103 102 99 94 90 87 87 88 88 87 84 81 80 80 80 80 79 80 79
203 197 191 185 176 182 187 187 186 186 188 191 195 195 195 193 196 195 181 150 99 103 107 108 107 104 102 98 93 90 91 91 90 89 87 84 82 81 81 81 81 81 81
206 201 197 193 186 185 188 186 188 188 190 196 198 197 195 190 197 194 177 139 104 104 108 110 108 106 105 102 98 93 93 93 92 92 93 91 87 85 84 83 83 83 83